timestamp,wind_dir_avg,wind_spd_avg,wind_spd_max_dir,wind_spd_gust,battery_voltage,lat,long
2021-06-18 00:04:01+00:00,213.0,9.97,214.0,11.34,13.29,47.59359,-54.27349
2021-06-18 00:14:01+00:00,210.0,10.97,210.0,12.23,12.73,47.59359,-54.27349
2021-06-18 00:24:01+00:00,211.0,10.65,215.0,11.91,12.73,47.59359,-54.27349
2021-06-18 00:34:01+00:00,212.0,10.46,214.0,11.9,12.73,47.59359,-54.27349
2021-06-18 00:44:01+00:00,213.0,10.27,215.0,11.88,12.73,47.59359,-54.27349
2021-06-18 00:54:01+00:00,216.0,9.47,213.0,10.56,12.73,47.59359,-54.27349
2021-06-18 01:04:01+00:00,216.0,8.92,214.0,10.26,12.73,47.59359,-54.27349
2021-06-18 01:14:01+00:00,220.0,7.52,223.0,8.54,12.57,47.59359,-54.27349
2021-06-18 01:24:01+00:00,220.0,7.41,218.0,8.29,12.57,47.59359,-54.27349
2021-06-18 01:34:01+00:00,218.0,8.3,216.0,9.21,12.57,47.59359,-54.27349
2021-06-18 01:44:01+00:00,216.0,8.01,217.0,8.98,12.57,47.59359,-54.27349
2021-06-18 01:54:01+00:00,219.0,6.83,218.0,7.58,12.57,47.59359,-54.27349
2021-06-18 02:04:01+00:00,219.0,7.82,219.0,8.55,12.57,47.59359,-54.27349
2021-06-18 02:14:01+00:00,213.0,8.83,212.0,10.98,12.57,47.59359,-54.27349
2021-06-18 02:24:01+00:00,214.0,9.47,213.0,10.74,12.57,47.59359,-54.27349
2021-06-18 02:34:01+00:00,214.0,10.02,215.0,11.32,12.57,47.59359,-54.27349
2021-06-18 02:44:01+00:00,217.0,8.44,220.0,9.06,12.57,47.59359,-54.27349
2021-06-18 02:54:01+00:00,222.0,8.06,225.0,9.58,12.57,47.59359,-54.27349
2021-06-18 03:04:01+00:00,218.0,8.8,216.0,10.28,12.57,47.59359,-54.27349
2021-06-18 03:14:00+00:00,220.0,8.71,222.0,9.7,12.57,47.59359,-54.27349
2021-06-18 03:24:00+00:00,218.0,8.12,215.0,9.48,12.57,47.59359,-54.27349
2021-06-18 03:34:00+00:00,216.0,8.24,215.0,9.17,12.57,47.59359,-54.27349
2021-06-18 03:44:00+00:00,219.0,9.48,224.0,10.99,12.57,47.59359,-54.27349
2021-06-18 03:54:00+00:00,218.0,8.52,218.0,9.27,12.57,47.59359,-54.27349
2021-06-18 04:04:00+00:00,215.0,9.25,216.0,10.36,12.57,47.59359,-54.27349
2021-06-18 04:14:00+00:00,214.0,8.09,208.0,9.23,12.57,47.59359,-54.27349
2021-06-18 04:24:00+00:00,217.0,7.41,218.0,8.15,12.57,47.59359,-54.27349
2021-06-18 04:34:00+00:00,213.0,6.96,213.0,7.66,12.57,47.59359,-54.27349
2021-06-18 04:44:00+00:00,205.0,7.38,209.0,8.0,12.57,47.59359,-54.27349
2021-06-18 04:54:00+00:00,220.0,7.27,221.0,8.08,12.57,47.59359,-54.27349
2021-06-18 05:04:00+00:00,229.0,5.87,229.0,7.0,12.57,47.59359,-54.27349
2021-06-18 05:14:00+00:00,206.0,6.87,205.0,7.36,12.57,47.59359,-54.27349
2021-06-18 05:24:00+00:00,203.0,7.82,206.0,8.84,12.57,47.59359,-54.27349
2021-06-18 05:34:00+00:00,214.0,7.64,217.0,8.73,12.57,47.59359,-54.27349
2021-06-18 05:44:00+00:00,227.0,7.1,222.0,8.49,12.57,47.59359,-54.27349
2021-06-18 05:54:00+00:00,222.0,7.49,219.0,8.76,12.57,47.59359,-54.27349
2021-06-18 06:04:00+00:00,218.0,7.31,218.0,8.02,12.57,47.59359,-54.27349
2021-06-18 06:14:00+00:00,219.0,7.67,220.0,9.13,12.49,47.59359,-54.27349
2021-06-18 06:24:00+00:00,218.0,7.1,221.0,7.97,12.49,47.59359,-54.27349
2021-06-18 06:34:00+00:00,207.0,8.01,206.0,9.02,12.49,47.59359,-54.27349
2021-06-18 06:44:00+00:00,216.0,6.97,216.0,7.86,12.49,47.59359,-54.27349
2021-06-18 06:54:00+00:00,215.0,5.26,214.0,5.96,12.49,47.59359,-54.27349
2021-06-18 07:04:00+00:00,211.0,6.24,211.0,6.82,12.49,47.59359,-54.27349
2021-06-18 07:14:00+00:00,214.0,5.9,211.0,6.39,12.41,47.59359,-54.27349
2021-06-18 07:24:00+00:00,211.0,5.25,209.0,5.92,12.41,47.59359,-54.27349
2021-06-18 07:34:00+00:00,217.0,4.87,216.0,5.36,12.41,47.59359,-54.27349
2021-06-18 07:44:00+00:00,217.0,4.16,220.0,4.54,12.41,47.59359,-54.27349
2021-06-18 07:54:00+00:00,209.0,5.71,210.0,6.15,12.41,47.59359,-54.27349
2021-06-18 08:04:00+00:00,214.0,5.85,216.0,6.3,12.41,47.59359,-54.27349
2021-06-18 08:14:01+00:00,216.0,5.18,216.0,5.68,12.41,47.59359,-54.27349
2021-06-18 08:24:01+00:00,213.0,5.56,211.0,5.86,12.41,47.59359,-54.27349
2021-06-18 08:34:01+00:00,215.0,4.36,214.0,4.91,12.41,47.59359,-54.27349
2021-06-18 08:44:01+00:00,227.0,4.68,226.0,5.09,12.41,47.59359,-54.27349
2021-06-18 08:54:01+00:00,224.0,4.46,215.0,5.35,12.41,47.59359,-54.27349
2021-06-18 09:04:01+00:00,226.0,3.87,224.0,4.63,12.41,47.59359,-54.27349
2021-06-18 09:14:01+00:00,214.0,4.26,216.0,4.52,13.05,47.59359,-54.27349
2021-06-18 09:24:01+00:00,218.0,4.41,218.0,4.78,13.05,47.59359,-54.27349
2021-06-18 09:34:01+00:00,214.0,5.04,215.0,5.44,13.05,47.59359,-54.27349
2021-06-18 09:44:01+00:00,218.0,5.31,217.0,5.75,13.05,47.59359,-54.27349
2021-06-18 09:54:01+00:00,213.0,4.54,215.0,5.26,13.05,47.59359,-54.27349
2021-06-18 10:04:01+00:00,217.0,5.14,220.0,5.57,13.05,47.59359,-54.27349
2021-06-18 10:14:00+00:00,227.0,4.5,227.0,5.65,13.68,47.59359,-54.27349
2021-06-18 10:24:00+00:00,227.0,4.13,228.0,4.63,13.68,47.59359,-54.27349
2021-06-18 10:34:00+00:00,202.0,4.47,205.0,4.97,13.68,47.59359,-54.27349
2021-06-18 10:44:00+00:00,195.0,4.86,199.0,5.22,13.68,47.59359,-54.27349
2021-06-18 10:54:00+00:00,201.0,5.26,203.0,5.79,13.68,47.59359,-54.27349
2021-06-18 11:04:00+00:00,210.0,5.26,211.0,5.55,13.68,47.59359,-54.27349
2021-06-18 11:14:01+00:00,205.0,4.79,202.0,5.33,13.76,47.59359,-54.27349
2021-06-18 11:24:01+00:00,204.0,4.76,208.0,5.36,13.76,47.59359,-54.27349
2021-06-18 11:34:01+00:00,208.0,5.96,211.0,6.57,13.76,47.59359,-54.27349
2021-06-18 11:44:01+00:00,212.0,6.34,214.0,7.03,13.76,47.59359,-54.27349
2021-06-18 11:54:01+00:00,215.0,6.26,217.0,6.96,13.76,47.59359,-54.27349
2021-06-18 12:04:01+00:00,215.0,6.5,217.0,7.6,13.76,47.59359,-54.27349
2021-06-18 12:14:01+00:00,220.0,6.31,223.0,7.08,13.92,47.59359,-54.27349
2021-06-18 12:24:01+00:00,217.0,5.94,217.0,6.56,13.92,47.59359,-54.27349
2021-06-18 12:34:01+00:00,212.0,6.69,212.0,7.38,13.92,47.59359,-54.27349
2021-06-18 12:44:01+00:00,207.0,6.77,211.0,7.52,13.92,47.59359,-54.27349
2021-06-18 12:54:01+00:00,209.0,7.16,207.0,7.88,13.92,47.59359,-54.27349
2021-06-18 13:04:01+00:00,212.0,7.99,213.0,8.63,13.92,47.59359,-54.27349
2021-06-18 13:14:01+00:00,211.0,8.42,207.0,9.09,13.84,47.59359,-54.27349
2021-06-18 13:24:01+00:00,211.0,7.91,212.0,8.72,13.84,47.59359,-54.27349
2021-06-18 13:34:01+00:00,212.0,8.07,213.0,8.91,13.84,47.59359,-54.27349
2021-06-18 13:44:01+00:00,212.0,8.62,214.0,9.34,13.84,47.59359,-54.27349
2021-06-18 13:54:01+00:00,214.0,8.91,217.0,9.65,13.84,47.59359,-54.27349
2021-06-18 14:04:01+00:00,215.0,8.14,215.0,9.09,13.84,47.59359,-54.27349
2021-06-18 14:14:01+00:00,212.0,8.44,212.0,9.67,14.08,47.59359,-54.27349
2021-06-18 14:24:01+00:00,213.0,8.87,214.0,9.6,14.08,47.59359,-54.27349
2021-06-18 14:34:01+00:00,208.0,8.92,208.0,9.83,14.08,47.59359,-54.27349
2021-06-18 14:44:01+00:00,215.0,8.67,215.0,10.07,14.08,47.59359,-54.27349
2021-06-18 14:54:01+00:00,214.0,9.95,214.0,11.24,14.08,47.59359,-54.27349
2021-06-18 15:04:01+00:00,212.0,10.61,210.0,12.02,14.08,47.59359,-54.27349
2021-06-18 15:14:01+00:00,215.0,9.85,216.0,11.78,14.24,47.59359,-54.27349
2021-06-18 15:24:01+00:00,210.0,9.93,211.0,10.72,14.24,47.59359,-54.27349
2021-06-18 15:34:01+00:00,211.0,9.09,212.0,10.0,14.24,47.59359,-54.27349
2021-06-18 15:44:01+00:00,211.0,10.43,215.0,11.53,14.24,47.59359,-54.27349
2021-06-18 15:54:01+00:00,212.0,9.1,213.0,10.47,14.24,47.59359,-54.27349
2021-06-18 16:04:01+00:00,212.0,9.04,208.0,10.44,14.24,47.59359,-54.27349
2021-06-18 16:14:01+00:00,212.0,10.64,210.0,11.87,14.32,47.59359,-54.27349
2021-06-18 16:24:01+00:00,210.0,11.11,210.0,12.13,14.32,47.59359,-54.27349
2021-06-18 16:34:01+00:00,212.0,11.2,210.0,12.53,14.32,47.59359,-54.27349
2021-06-18 16:44:01+00:00,212.0,11.41,210.0,12.91,14.32,47.59359,-54.27349
2021-06-18 16:54:01+00:00,214.0,11.36,216.0,12.76,14.32,47.59359,-54.27349
2021-06-18 17:04:01+00:00,211.0,12.26,212.0,13.58,14.32,47.59359,-54.27349
2021-06-18 17:14:01+00:00,222.0,9.41,221.0,10.7,13.92,47.59359,-54.27349
2021-06-18 17:24:01+00:00,215.0,10.21,216.0,11.46,13.92,47.59359,-54.27349
2021-06-18 17:34:01+00:00,217.0,9.57,221.0,10.38,13.92,47.59359,-54.27349
2021-06-18 17:44:01+00:00,214.0,10.35,214.0,11.37,13.92,47.59359,-54.27349
2021-06-18 17:54:01+00:00,213.0,10.89,214.0,12.6,13.92,47.59359,-54.27349
2021-06-18 18:04:01+00:00,213.0,10.75,215.0,12.11,13.92,47.59359,-54.27349
2021-06-18 18:14:01+00:00,211.0,10.54,205.0,11.53,13.92,47.59359,-54.27349
2021-06-18 18:24:01+00:00,207.0,10.21,210.0,11.74,13.92,47.59359,-54.27349
2021-06-18 18:34:01+00:00,207.0,10.51,205.0,12.18,13.92,47.59359,-54.27349
2021-06-18 18:44:01+00:00,207.0,10.47,209.0,11.83,13.92,47.59359,-54.27349
2021-06-18 18:54:01+00:00,206.0,9.85,210.0,11.27,13.92,47.59359,-54.27349
2021-06-18 19:04:01+00:00,205.0,9.28,207.0,10.79,13.92,47.59359,-54.27349
2021-06-18 19:14:01+00:00,205.0,9.79,208.0,10.82,13.84,47.59359,-54.27349
2021-06-18 19:24:01+00:00,208.0,9.14,206.0,10.58,13.84,47.59359,-54.27349
2021-06-18 19:34:01+00:00,211.0,8.64,211.0,9.4,13.84,47.59359,-54.27349
2021-06-18 19:44:01+00:00,204.0,8.73,205.0,10.41,13.84,47.59359,-54.27349
2021-06-18 19:54:01+00:00,205.0,9.29,208.0,10.7,13.84,47.59359,-54.27349
2021-06-18 20:04:01+00:00,205.0,9.08,205.0,9.99,13.84,47.59359,-54.27349
2021-06-18 20:14:01+00:00,211.0,8.94,207.0,9.78,13.84,47.59359,-54.27349
2021-06-18 20:24:01+00:00,214.0,8.64,214.0,9.6,13.84,47.59359,-54.27349
2021-06-18 20:34:01+00:00,211.0,9.29,210.0,10.48,13.84,47.59359,-54.27349
2021-06-18 20:44:01+00:00,209.0,10.26,211.0,11.58,13.84,47.59359,-54.27349
2021-06-18 20:54:01+00:00,206.0,10.17,204.0,11.16,13.84,47.59359,-54.27349
2021-06-18 21:04:01+00:00,209.0,9.72,210.0,10.69,13.84,47.59359,-54.27349
2021-06-18 21:14:01+00:00,210.0,9.46,212.0,10.12,13.76,47.59359,-54.27349
2021-06-18 21:24:01+00:00,209.0,9.73,210.0,10.46,13.76,47.59359,-54.27349
2021-06-18 21:34:01+00:00,214.0,8.29,213.0,9.17,13.76,47.59359,-54.27349
2021-06-18 21:44:01+00:00,206.0,8.53,205.0,9.31,13.76,47.59359,-54.27349
2021-06-18 21:54:01+00:00,210.0,8.55,206.0,9.46,13.76,47.59359,-54.27349
2021-06-18 22:04:01+00:00,204.0,7.64,204.0,8.78,13.76,47.59359,-54.27349
2021-06-18 22:14:01+00:00,205.0,6.84,212.0,7.59,13.84,47.59359,-54.27349
2021-06-18 22:24:01+00:00,202.0,7.38,203.0,8.14,13.84,47.59359,-54.27349
2021-06-18 22:34:01+00:00,204.0,7.38,208.0,8.19,13.84,47.59359,-54.27349
2021-06-18 22:44:01+00:00,207.0,8.52,201.0,10.45,13.84,47.59359,-54.27349
2021-06-18 22:54:01+00:00,201.0,8.5,203.0,9.45,13.84,47.59359,-54.27349
2021-06-18 23:04:01+00:00,205.0,8.17,203.0,9.22,13.84,47.59359,-54.27349
2021-06-18 23:14:01+00:00,205.0,7.72,203.0,8.74,13.53,47.59359,-54.27349
2021-06-18 23:24:01+00:00,206.0,7.77,208.0,8.92,13.53,47.59359,-54.27349
2021-06-18 23:34:01+00:00,208.0,8.08,201.0,9.23,13.53,47.59359,-54.27349
2021-06-18 23:44:01+00:00,211.0,7.87,213.0,8.66,13.53,47.59359,-54.27349
2021-06-18 23:54:01+00:00,208.0,7.92,210.0,8.83,13.53,47.59359,-54.27349
